Content
SEND FEEDBACK

Daily
Averages
Monthly
Summary
United States of America

MINGO, KANSAS


Home > North America > United States > Kansas
Elevation: 3020 feet     Latitude: 39 16N     Longitude: 100 52W

WEATHER
 
SELECT A DAY
Number of Records: 51,209;   Date Range: 4/3/12 - 9/17/14
 
SHARE

PRINT THIS DATA

[ ← Previous Day ]
WEATHER ALMANAC - JANUARY 3, 2013
[ Next Day → ]
[ °C ]   °F
Weather ElementAverageHighLow
Temperature19.4 °F28.4 °F (1:35 pm)8.6 °F (9:35 pm)
Dewpoint16.6 °F21.2 °F (6:35 am)6.8 °F (10:35 pm)
Humidity89.7 %100 % (2:15 am)69 % (2:15 pm)
Barometer30.30 in30.38 in (10:35 am)30.24 in (11:15 pm)
Wind Speed7.7 mph12.7 mph (12:35 am)
Weather ElementAverage
Visibility10 mi
Wind DirectionW (269.3 °)

Weather ElementTotal
Precipitation---
Heating Degree Days46.5 (Base 65)
Averaged from 69 records on January 3, 2013
WEATHER CONDITIONS BREAKOUT
WIND DIRECTION BREAKOUT
WEATHER BY HOUR - JANUARY 3, 2013
[ °C ]   °F
Local TimeTemperatureDewpointHumidityBarometerVisibilityWind DirectionWind SpeedGust SpeedPrecipitationEventsConditions
12:35 AM19.4 °F17.6 °F93 %30.29 in10.0 miWNW (300°)12.7 mphOvercast
12:55 AM19.4 °F15.8 °F86 %30.29 in10.0 miWNW (300°)12.7 mphOvercast
1:15 AM19.4 °F17.6 °F93 %30.30 in10.0 miNW (310°)9.2 mphMostly Cloudy
1:35 AM15.8 °F14.0 °F93 %30.31 in10.0 miWNW (290°)10.4 mphScattered Clouds
1:55 AM14.0 °F12.2 °F93 %30.31 in10.0 miNW (310°)9.2 mphScattered Clouds
2:15 AM12.2 °F12.2 °F100 %30.31 in10.0 miNW (310°)10.4 mphScattered Clouds
2:35 AM10.4 °F10.4 °F100 %30.32 in10.0 miNW (310°)9.2 mphClear
2:55 AM14.0 °F14.0 °F100 %30.32 in10.0 miNW (310°)11.5 mphScattered Clouds
3:15 AM14.0 °F14.0 °F100 %30.33 in10.0 miWNW (290°)11.5 mphMostly Cloudy
3:35 AM17.6 °F15.8 °F93 %30.34 in10.0 miWNW (290°)11.5 mphOvercast
3:55 AM19.4 °F17.6 °F93 %30.34 in10.0 miWNW (300°)11.5 mphOvercast
4:15 AM21.2 °F19.4 °F93 %30.34 in10.0 miWNW (300°)10.4 mphOvercast
4:35 AM21.2 °F19.4 °F93 %30.33 in10.0 miWNW (300°)10.4 mphOvercast
4:55 AM21.2 °F19.4 °F93 %30.33 in10.0 miNW (310°)9.2 mphOvercast
5:15 AM21.2 °F19.4 °F93 %30.33 in10.0 miWNW (300°)9.2 mphOvercast
5:35 AM21.2 °F19.4 °F93 %30.33 in10.0 miWNW (290°)9.2 mphOvercast
5:55 AM21.2 °F19.4 °F93 %30.34 in10.0 miWNW (290°)8.1 mphOvercast
6:15 AM21.2 °F19.4 °F93 %30.34 in10.0 miWNW (290°)8.1 mphOvercast
6:35 AM21.2 °F21.2 °F100 %30.34 in10.0 miWNW (290°)9.2 mphOvercast
7:15 AM21.2 °F21.2 °F100 %30.34 in10.0 miWNW (290°)9.2 mphOvercast
7:35 AM21.2 °F21.2 °F100 %30.34 in10.0 miWNW (300°)6.9 mphOvercast
7:55 AM21.2 °F21.2 °F100 %30.34 in10.0 miWNW (290°)8.1 mphOvercast
8:15 AM21.2 °F19.4 °F93 %30.34 in10.0 miWNW (290°)5.8 mphOvercast
8:35 AM21.2 °F19.4 °F93 %30.35 in10.0 miWNW (290°)5.8 mphOvercast
8:55 AM21.2 °F21.2 °F100 %30.35 in10.0 miWNW (290°)5.8 mphOvercast
9:15 AM21.2 °F21.2 °F100 %30.36 in10.0 miWNW (300°)5.8 mphOvercast
9:35 AM23.0 °F21.2 °F93 %30.36 in10.0 miNW (310°)5.8 mphOvercast
9:55 AM23.0 °F21.2 °F93 %30.37 in10.0 miNW (310°)5.8 mphOvercast
10:15 AM23.0 °F21.2 °F93 %30.37 in10.0 miNW (320°)6.9 mphOvercast
10:35 AM24.8 °F21.2 °F86 %30.38 in10.0 miNNW (330°)5.8 mphOvercast
10:55 AM24.8 °F21.2 °F86 %30.38 in10.0 miNorth (350°)4.6 mphMostly Cloudy
11:15 AM26.6 °F21.2 °F80 %30.37 in10.0 miWest (270°)3.5 mphScattered Clouds
11:35 AM26.6 °F21.2 °F80 %30.37 in10.0 miWSW (250°)6.9 mphClear
11:55 AM26.6 °F21.2 °F80 %30.36 in10.0 miWest (260°)5.8 mphClear
12:15 PM26.6 °F21.2 °F80 %30.34 in10.0 miWest (260°)8.1 mphClear
12:35 PM26.6 °F21.2 °F80 %30.33 in10.0 miWest (270°)8.1 mphClear
12:55 PM26.6 °F21.2 °F80 %30.32 in10.0 miWest (260°)6.9 mphClear
1:15 PM26.6 °F21.2 °F80 %30.31 in10.0 miWSW (250°)8.1 mphClear
1:35 PM28.4 °F21.2 °F74 %30.30 in10.0 miWSW (250°)5.8 mphClear
1:55 PM28.4 °F21.2 °F74 %30.29 in10.0 miWSW (250°)8.1 mphClear
2:15 PM28.4 °F19.4 °F69 %30.29 in10.0 miWSW (240°)8.1 mphClear
2:35 PM28.4 °F19.4 °F69 %30.29 in10.0 miWSW (250°)8.1 mphClear
2:55 PM28.4 °F19.4 °F69 %30.28 in10.0 miWSW (250°)6.9 mphClear
3:15 PM28.4 °F19.4 °F69 %30.29 in10.0 miWSW (240°)8.1 mphClear
3:35 PM28.4 °F21.2 °F74 %30.28 in10.0 miWSW (240°)5.8 mphClear
3:55 PM28.4 °F21.2 °F74 %30.27 in10.0 miSW (230°)4.6 mphClear
4:15 PM28.4 °F19.4 °F69 %30.27 in10.0 miSSW (210°)4.6 mphClear
4:55 PM26.6 °F19.4 °F74 %30.27 in10.0 miSSW (200°)4.6 mphClear
5:15 PM24.8 °F19.4 °F80 %30.27 in10.0 miSSW (210°)5.8 mphClear
5:35 PM21.2 °F17.6 °F86 %30.27 in10.0 miSW (220°)5.8 mphClear
5:55 PM19.4 °F17.6 °F93 %30.27 in10.0 miSW (220°)4.6 mphClear
6:15 PM17.6 °F15.8 °F93 %30.26 in10.0 miSW (220°)6.9 mphClear
6:35 PM15.8 °F14.0 °F93 %30.26 in10.0 miSW (220°)8.1 mphClear
6:55 PM12.2 °F12.2 °F100 %30.26 in10.0 miSW (230°)5.8 mphClear
7:15 PM12.2 °F10.4 °F92 %30.26 in10.0 miWSW (240°)8.1 mphClear
7:35 PM12.2 °F10.4 °F92 %30.26 in10.0 miWSW (240°)6.9 mphClear
7:55 PM10.4 °F8.6 °F92 %30.26 in10.0 miSW (230°)6.9 mphClear
8:15 PM10.4 °F10.4 °F100 %30.26 in10.0 miWSW (240°)6.9 mphClear
8:35 PM10.4 °F10.4 °F100 %30.26 in10.0 miWSW (240°)5.8 mphClear
8:55 PM10.4 °F10.4 °F100 %30.25 in10.0 miWSW (240°)6.9 mphClear
9:15 PM10.4 °F8.6 °F92 %30.25 in10.0 miWSW (250°)6.9 mphClear
9:35 PM8.6 °F8.6 °F100 %30.25 in10.0 miWSW (250°)8.1 mphClear
9:55 PM8.6 °F8.6 °F100 %30.25 in10.0 miWSW (250°)8.1 mphClear
10:15 PM8.6 °F8.6 °F100 %30.25 in10.0 miWest (260°)8.1 mphClear
10:35 PM8.6 °F6.8 °F92 %30.25 in10.0 miWest (260°)9.2 mphClear
10:55 PM8.6 °F6.8 °F92 %30.25 in10.0 miWest (260°)9.2 mphClear
11:15 PM8.6 °F6.8 °F92 %30.24 in10.0 miWest (260°)6.9 mphClear
11:35 PM8.6 °F8.6 °F100 %30.24 in10.0 miWSW (250°)8.1 mphClear
11:55 PM10.4 °F8.6 °F92 %30.24 in10.0 miWSW (250°)8.1 mphClear
Hourly data recorded from KCBK, located miles away from Mingo, Kansas







STORIES FROM OUR PARTNERS